Location: Martin
(32.0982°N, 93.2193°W)
Time: 02:24:28
(UTC+00:00)

ARIANE 6 FM1 Upper Stage - Pass Details

Date: 21 September 2024
Orbit: 563 x 594 km, 62.0° (Epoch: 11 October)

Event Time Altitude Azimuth Distance (km) Brightness Sun altitude
Exits shadow 09:03:38 - 15° (NNE) 2,151 6.1 -36.9°
Reaches altitude 10° 09:05:47 10° 41° (NE) 1,936 6.1 -36.5°
Maximum altitude 09:05:57 10° 44° (NE) 1,935 6.1 -36.5°
Drops below altitude 10° 09:06:07 10° 46° (NE) 1,936 6.1 -36.5°
Sets 09:11:04 0° 95° (E) 2,833 7.0 -35.5°
